Vacaville, CA

2:25 PM PST on January 22, 2018 (GMT -0800)
Nut Tree

Weather History for KVCB - November, 2014

Change the Weather History Date:

Monday, November 17, 2014

  Actual Average Record
Temperature  
Mean Temperature 54 °F -  
Max Temperature 68 °F 64 °F 80 °F (1989)
Min Temperature 39 °F 42 °F 26 °F (1958)
Degree Days  
Heating Degree Days 12    
Growing Degree Days 4 (Base 50)    
Moisture  
Dew Point 25 °F    
Average Humidity 39    
Maximum Humidity 63    
Minimum Humidity 17    
Precipitation  
Precipitation 0.00 in - - ()
Sea Level Pressure  
Sea Level Pressure 30.21 in    
Wind  
Wind Speed 4 mph (North)    
Max Wind Speed 12 mph    
Max Gust Speed 21 mph    
Visibility 10 miles    
Events      
Averages and records for this station are not official NWS values.
T = Trace of Precipitation, MM = Missing Value Source: NWS Daily Summary

Daily Weather History Graph

Daily Weather History Graph

Search for Another Location

Airport or City:

Trip Planner

Search our weather history database for the weather conditions in past years. The results will help you decide how hot, cold, wet, or windy it might be!

Date:

Astronomy

Nov. 17, 2014 Rise Set
Actual Time 6:51 AM PST 4:53 PM PST
Civil Twilight 6:23 AM PST 5:22 PM PST
Nautical Twilight 5:51 AM PST 5:54 PM PST
Astronomical Twilight 5:19 AM PST 6:25 PM PST
Moon 2:02 AM PST (11/17) 2:16 PM PST (11/17)
Length of Visible Light 10h 58m
Length of Day
10h 02m
Waning Crescent, 22% of the Moon is Illuminated
Nov 17
Waning Crescent
Nov 22
New
Nov 29
First Quarter
Dec 6
Full
Dec 14
Last Quarter

Hourly Weather History & Observations

Time (PST) Temp. Windchill Dew Point Humidity Pressure Visibility Wind Dir Wind Speed Gust Speed Precip Events Conditions
12:53 AM 43.0 °F 41.3 °F 27.0 °F 53% 30.28 in 10.0 mi North 3.5 mph - N/A   Clear
1:53 AM 48.0 °F - 25.0 °F 41% 30.27 in 10.0 mi North 4.6 mph - N/A   Clear
2:53 AM 42.1 °F - 26.1 °F 53% 30.26 in 10.0 mi Calm Calm - N/A   Clear
3:53 AM 41.0 °F - 27.0 °F 57% 30.25 in 10.0 mi Calm Calm - N/A   Clear
4:53 AM 45.0 °F 42.6 °F 25.0 °F 46% 30.25 in 10.0 mi North 4.6 mph - N/A   Clear
5:53 AM 46.9 °F - 23.0 °F 39% 30.24 in 10.0 mi North 5.8 mph - N/A   Clear
6:53 AM 46.0 °F 43.9 °F 23.0 °F 40% 30.25 in 10.0 mi North 4.6 mph - N/A   Clear
7:53 AM 48.0 °F - 24.1 °F 39% 30.26 in 10.0 mi North 5.8 mph - N/A   Clear
8:53 AM 54.0 °F - 24.1 °F 31% 30.25 in 10.0 mi North 5.8 mph - N/A   Clear
9:53 AM 61.0 °F - 21.0 °F 21% 30.26 in 10.0 mi North 8.1 mph - N/A   Clear
10:53 AM 63.0 °F - 19.0 °F 18% 30.24 in 10.0 mi North 11.5 mph 20.7 mph N/A   Clear
11:53 AM 66.0 °F - 19.9 °F 17% 30.22 in 10.0 mi North 8.1 mph - N/A   Clear
12:53 PM 66.0 °F - 19.9 °F 17% 30.20 in 10.0 mi NNE 5.8 mph - N/A   Clear
1:53 PM 68.0 °F - 21.9 °F 17% 30.18 in 10.0 mi Variable 5.8 mph - N/A   Clear
2:53 PM 68.0 °F - 23.0 °F 18% 30.17 in 10.0 mi Variable 3.5 mph - N/A   Clear
3:53 PM 66.0 °F - 21.0 °F 18% 30.16 in 10.0 mi NNE 4.6 mph - N/A   Clear
4:53 PM 52.0 °F - 27.0 °F 38% 30.15 in 10.0 mi NE 3.5 mph - N/A   Clear
5:53 PM 50.0 °F - 27.0 °F 41% 30.17 in 10.0 mi Calm Calm - N/A   Clear
6:53 PM 46.0 °F - 28.0 °F 50% 30.17 in 10.0 mi Calm Calm - N/A   Clear
7:53 PM 45.0 °F - 26.1 °F 48% 30.17 in 10.0 mi Calm Calm - N/A   Clear
8:53 PM 46.0 °F 44.8 °F 27.0 °F 47% 30.15 in 10.0 mi North 3.5 mph - N/A   Clear
9:53 PM 41.0 °F - 28.9 °F 62% 30.16 in 10.0 mi Calm Calm - N/A   Clear
10:53 PM 39.9 °F - 28.0 °F 63% 30.15 in 10.0 mi Calm Calm - N/A   Clear
11:53 PM 41.0 °F - 28.0 °F 60% 30.16 in 10.0 mi Calm Calm - N/A   Clear